User: anonymous   Login
Location: Brainerd
(46.3580°N, 94.2010°W)
Time: 01:17:20
(UTC-06:00)
Language:

CZ-4C R/B - Orbit

View from above orbital plane
View from above orbital plane
View from above satellite
View from above satellite

Ground track
Ground track

The orbit data is extracted from the following two-line orbital elements,

1 32290U 07055B   14325.79352966  .00013812  00000-0  51175-3 0   140
2 32290 097.5630 041.7286 0083999 217.5180 257.5217 15.24429576388269
Epoch (UTC): 21 November 2014 19:02:40
Eccentricity: 0.0083999
inclination: 97.5630°
perigee height: 435 km
apogee height: 550 km
right ascension of ascending node: 41.7286°
argument of perigee: 217.5180°
revolutions per day: 15.24429576
mean anomaly at epoch: 257.5217°
orbit number at epoch: 38826

The dashed part of the orbit path shows where the satellite is in the earth's shadow,  

DLR